This is the latest recevied weather packets stored in our database for station/object EA5JMY-10. If no packets are shown the sender has not sent any weather packets the latest 10 day(s).
| Time | Temp. | Humidity | Pressure | Rain* | Wind** | Luminosity | Snow |
|---|---|---|---|---|---|---|---|
| 1788319520 | 25.56° C | 75% | 1020.7 hPa | - | - | - | - |
| 1788318620 | 26.11° C | 72% | 1020.8 hPa | - | - | - | - |
| 1788317720 | 26.11° C | 73% | 1020.7 hPa | - | - | - | - |
| 1788316820 | 26.11° C | 72% | 1020.8 hPa | - | - | - | - |
| 1788315920 | 26.11° C | 72% | 1020.7 hPa | - | - | - | - |
| 1788315020 | 25.56° C | 73% | 1020.8 hPa | - | - | - | - |
| 1788314119 | 25.56° C | 74% | 1020.6 hPa | - | - | - | - |
| 1788313219 | 25.56° C | 73% | 1020.8 hPa | - | - | - | - |
| 1788312319 | 25.56° C | 73% | 1020.9 hPa | - | - | - | - |
| 1788311419 | 25.56° C | 76% | 1020.8 hPa | - | - | - | - |
| 1788310519 | 25.56° C | 76% | 1020.8 hPa | - | - | - | - |
| 1788309618 | 25.56° C | 77% | 1020.9 hPa | - | - | - | - |
| 1788308718 | 25.56° C | 76% | 1021 hPa | - | - | - | - |
| 1788307818 | 25.56° C | 76% | 1021.2 hPa | - | - | - | - |
| 1788306918 | 25.56° C | 77% | 1021.2 hPa | - | - | - | - |
| 1788306018 | 25.56° C | 75% | 1021.2 hPa | - | - | - | - |
| 1788305149 | 26.11° C | 74% | 1021.4 hPa | - | - | - | - |
| 1788305118 | 26.11° C | 74% | 1021.4 hPa | - | - | - | - |
| 1788304218 | 26.67° C | 73% | 1021.3 hPa | - | - | - | - |
| 1788303318 | 26.67° C | 73% | 1021.2 hPa | - | - | - | - |
| 1788302417 | 26.67° C | 73% | 1021.1 hPa | - | - | - | - |
| 1788301517 | 26.67° C | 73% | 1021 hPa | - | - | - | - |
| 1788300617 | 26.67° C | 75% | 1020.8 hPa | - | - | - | - |
| 1788299717 | 26.67° C | 74% | 1020.9 hPa | - | - | - | - |
| 1788298817 | 27.22° C | 74% | 1021 hPa | - | - | - | - |
* Rain since midnight (hover to see other rain measurements)
** Current wind speed in m/s (hover to see current wind gust speed)